This demonstration page uses our WeatherBlox Daily Observations layout. Learn more.

Left ArrowRight Arrow

Hourly Observations for June 8, 2021

Temp ( °F °C ) Dew Point ( °F °C ) Humidity (%) Winds ( mph kmh ) Pressure ( in mb ) Visibility ( mi km ) Precip ( " mm )
6:30 am 06:30 Sunny 66 19 64 18 94 94 N N/A 30.03 1017 7 11 N/A
6:45 am 06:45 Cloudy 68 20 66 19 94 94 N N/A 30.04 1017 10 16 N/A
7:45 am 07:45 Cloudy 72 22 68 20 88 88 N N/A 30.05 1018 10 16 N/A
8:30 am 08:30 Cloudy with Light Rain 73 23 68 20 83 83 S 7 11 30.05 1018 2 3 N/A
8:50 am 08:50 Cloudy with Light Rain 72 22 68 20 88 88 SSW 3 6 30.06 1018 2 3 N/A
9:12 am 09:12 Cloudy with Light Rain 72 22 68 20 88 88 N N/A 30.04 1017 5 8 N/A
9:30 am 09:30 Cloudy with Light Rain 70 21 68 20 94 94 N N/A 30.06 1018 2 2 N/A
9:45 am 09:45 Cloudy with Light Rain 70 21 68 20 94 94 N N/A 30.06 1018 2 3 N/A
10:05 am 10:05 Cloudy with Light Rain 72 22 68 20 88 88 N N/A 30.07 1018 5 8 N/A
10:50 am 10:50 Cloudy with Light Rain 72 22 70 21 94 94 N N/A 30.06 1018 7 11 N/A
11:50 am 11:50 Cloudy with Light Rain 73 23 70 21 89 89 N N/A 30.08 1019 7 11 N/A
12:45 pm 12:45 Sunny 73 23 70 21 89 89 N N/A 30.08 1019 10 16 N/A
1:45 pm 13:45 Partly Cloudy 75 24 68 20 78 78 SSW 10 17 30.09 1019 10 16 N/A
2:45 pm 14:45 Partly Cloudy 75 24 68 20 78 78 SW 9 15 30.06 1018 10 16 N/A
3:45 pm 15:45 Partly Cloudy 73 23 68 20 83 83 SW 9 15 30.05 1018 10 16 N/A
4:45 pm 16:45 Partly Cloudy 73 23 68 20 83 83 N N/A 30.05 1018 10 16 N/A
5:45 pm 17:45 Mostly Cloudy 72 22 68 20 88 88 SSE 5 7 30.04 1017 10 16 N/A
6:45 pm 18:45 Mostly Cloudy 72 22 68 20 88 88 S 6 9 30.04 1017 10 16 N/A
7:45 pm 19:45 Mostly Cloudy 72 22 68 20 88 88 N N/A 30.03 1017 10 16 N/A
8:45 pm 20:45 Partly Cloudy 70 21 68 20 94 94 N N/A 30.02 1017 10 16 N/A

Powered by AerisWeather